KNE46 OEJN-OERK

Flight info

Callsign KNE46
Flight time N/A
Altitude 37000
Route EGREP2W EGREP T532 ORDEM ORDEM1A
Aircraft A20N/M-SDE2E3FGHIRWXY/LB1

Departure

Time 2026-05-01 14:51
Airport King Abdulaziz International Airport (OEJN)

Arrival

Time N/A
Airport King Khalid International Airport (OERK)
Time Latitude Longitude Altitude Speed Heading
2026-05-01 13:55 21.67031 39.17176 56 ft 0 kts 280°
2026-05-01 14:40 21.67030 39.17183 56 ft 2 kts 280°
2026-05-01 14:40 21.67028 39.17199 56 ft 2 kts 280°
2026-05-01 14:40 21.67025 39.17215 56 ft 2 kts 280°
2026-05-01 14:40 21.67022 39.17230 56 ft 2 kts 280°
2026-05-01 14:41 21.67021 39.17240 56 ft 1 kts 280°
2026-05-01 14:41 21.67021 39.17256 56 ft 2 kts 251°
2026-05-01 14:41 21.67028 39.17271 56 ft 2 kts 228°
2026-05-01 14:41 21.67039 39.17281 56 ft 1 kts 205°
2026-05-01 14:42 21.67044 39.17283 56 ft 1 kts 198°
2026-05-01 14:42 21.67047 39.17284 56 ft 0 kts 200°
2026-05-01 14:45 21.67032 39.17278 56 ft 2 kts 202°
2026-05-01 14:45 21.67007 39.17266 56 ft 4 kts 204°
2026-05-01 14:46 21.66964 39.17252 56 ft 8 kts 185°
2026-05-01 14:46 21.66870 39.17311 56 ft 10 kts 81°
2026-05-01 14:46 21.66897 39.17385 56 ft 10 kts 69°
2026-05-01 14:47 21.66925 39.17461 56 ft 11 kts 69°
2026-05-01 14:47 21.66953 39.17543 56 ft 11 kts 71°
2026-05-01 14:47 21.66979 39.17628 56 ft 12 kts 73°
2026-05-01 14:48 21.66857 39.17732 56 ft 13 kts 162°
2026-05-01 14:48 21.66768 39.17768 56 ft 14 kts 158°
2026-05-01 14:48 21.66612 39.17836 56 ft 7 kts 142°
2026-05-01 14:49 21.66635 39.17948 56 ft 8 kts 69°
2026-05-01 14:49 21.66683 39.18037 56 ft 5 kts 358°
2026-05-01 14:50 21.66794 39.17992 56 ft 42 kts 339°
2026-05-01 14:50 21.68919 39.17161 334 ft 168 kts 340°
2026-05-01 14:51 21.70002 39.16752 986 ft 168 kts 340°
2026-05-01 14:51 21.72366 39.16714 1710 ft 186 kts
2026-05-01 14:52 21.75091 39.17601 2192 ft 225 kts 20°
2026-05-01 14:52 21.76516 39.18440 2500 ft 245 kts 34°
2026-05-01 14:52 21.79258 39.20980 3451 ft 267 kts 39°
2026-05-01 14:53 21.80649 39.22302 4103 ft 271 kts 38°
2026-05-01 14:53 21.82073 39.23632 4765 ft 275 kts 38°
2026-05-01 14:53 21.83529 39.24972 5434 ft 280 kts 38°
2026-05-01 14:53 21.85042 39.26353 6150 ft 285 kts 38°
2026-05-01 14:54 21.86559 39.27731 6805 ft 290 kts 38°
2026-05-01 14:54 21.88121 39.29147 7474 ft 295 kts 38°
2026-05-01 14:54 21.89692 39.30572 8155 ft 300 kts 39°
2026-05-01 14:54 21.91293 39.32026 8825 ft 305 kts 39°
2026-05-01 14:55 21.92904 39.33497 9473 ft 310 kts 39°
2026-05-01 14:55 21.94545 39.35017 10154 ft 314 kts 40°
2026-05-01 14:55 21.96217 39.36573 10608 ft 326 kts 40°
2026-05-01 14:55 21.97982 39.38215 10888 ft 343 kts 40°
2026-05-01 14:56 21.99826 39.39929 11279 ft 357 kts 40°
2026-05-01 14:56 22.01725 39.41697 11879 ft 362 kts 40°
2026-05-01 14:56 22.03640 39.43480 12507 ft 365 kts 40°
2026-05-01 14:56 22.05577 39.45282 13085 ft 370 kts 40°
2026-05-01 14:57 22.07543 39.47115 13693 ft 374 kts 40°
2026-05-01 14:57 22.11493 39.50802 14942 ft 380 kts 40°
2026-05-01 14:57 22.13488 39.52663 15512 ft 383 kts 39°
2026-05-01 14:58 22.15514 39.54551 16120 ft 385 kts 39°
2026-05-01 14:58 22.17559 39.56457 16736 ft 388 kts 39°
2026-05-01 14:58 22.19588 39.58349 17283 ft 391 kts 39°
2026-05-01 14:58 22.21677 39.60298 17880 ft 394 kts 39°
2026-05-01 14:59 22.23750 39.62234 18446 ft 397 kts 39°
2026-05-01 14:59 22.25842 39.64186 18983 ft 401 kts 39°
2026-05-01 14:59 22.27938 39.66143 19524 ft 404 kts 39°
2026-05-01 14:59 22.29957 39.68286 20051 ft 409 kts 49°
2026-05-01 15:00 22.33394 39.73271 21129 ft 416 kts 53°
2026-05-01 15:00 22.35097 39.75785 21692 ft 419 kts 52°
2026-05-01 15:00 22.36850 39.78309 22221 ft 422 kts 52°
2026-05-01 15:01 22.38636 39.80833 22720 ft 425 kts 51°
2026-05-01 15:01 22.40429 39.83349 23203 ft 429 kts 51°
2026-05-01 15:01 22.42275 39.85933 23654 ft 434 kts 51°
2026-05-01 15:01 22.44081 39.88523 24091 ft 439 kts 52°
2026-05-01 15:02 22.45878 39.91206 24527 ft 443 kts 53°
2026-05-01 15:02 22.46488 39.92125 24672 ft 444 kts 53°
2026-05-01 15:02 22.49497 39.96669 25400 ft 450 kts 52°
2026-05-01 15:02 22.51311 39.99400 25832 ft 453 kts 52°
2026-05-01 15:03 22.53168 40.02193 26241 ft 456 kts 52°
2026-05-01 15:03 22.55013 40.04964 26609 ft 460 kts 52°
2026-05-01 15:03 22.56890 40.07785 26983 ft 463 kts 52°
2026-05-01 15:03 22.58773 40.10614 27348 ft 467 kts 52°
2026-05-01 15:04 22.60669 40.13468 27699 ft 470 kts 52°
2026-05-01 15:04 22.62598 40.16366 28044 ft 473 kts 52°
2026-05-01 15:04 22.64504 40.19236 28389 ft 477 kts 52°
2026-05-01 15:04 22.66470 40.22200 28700 ft 481 kts 51°
2026-05-01 15:05 22.68406 40.25116 29037 ft 484 kts 52°
2026-05-01 15:05 22.70367 40.28069 29334 ft 486 kts 52°
2026-05-01 15:05 22.72356 40.31069 29632 ft 490 kts 51°
2026-05-01 15:05 22.74338 40.34062 29929 ft 492 kts 51°
2026-05-01 15:06 22.76341 40.37091 30299 ft 493 kts 51°
2026-05-01 15:06 22.78318 40.40082 30663 ft 493 kts 51°
2026-05-01 15:06 22.80317 40.43107 31039 ft 493 kts 51°
2026-05-01 15:06 22.82308 40.46117 31359 ft 494 kts 51°
2026-05-01 15:07 22.84299 40.49131 31686 ft 494 kts 51°
2026-05-01 15:07 22.86304 40.52168 32023 ft 494 kts 50°
2026-05-01 15:07 22.88304 40.55197 32312 ft 496 kts 50°
2026-05-01 15:07 22.90291 40.58209 32597 ft 497 kts 50°
2026-05-01 15:08 22.92316 40.61283 32940 ft 497 kts 50°
2026-05-01 15:08 22.94315 40.64318 33335 ft 497 kts 50°
2026-05-01 15:08 22.96314 40.67355 33734 ft 495 kts 51°
2026-05-01 15:08 22.98303 40.70381 34150 ft 493 kts 51°
2026-05-01 15:09 23.00291 40.73405 34534 ft 491 kts 51°
2026-05-01 15:09 23.02261 40.76405 34878 ft 489 kts 51°
2026-05-01 15:09 23.04250 40.79436 35220 ft 488 kts 51°
2026-05-01 15:09 23.06221 40.82428 35488 ft 488 kts 51°
2026-05-01 15:10 23.08182 40.85404 35679 ft 490 kts 51°
2026-05-01 15:10 23.12149 40.91442 36070 ft 492 kts 51°
2026-05-01 15:10 23.14138 40.94472 36244 ft 493 kts 51°
2026-05-01 15:11 23.16127 40.97504 36426 ft 494 kts 51°
2026-05-01 15:11 23.20117 41.03593 36795 ft 495 kts 51°
2026-05-01 15:11 23.22110 41.06638 36972 ft 496 kts 51°
2026-05-01 15:12 23.24102 41.09684 37063 ft 497 kts 51°
2026-05-01 15:12 23.30117 41.18891 37068 ft 498 kts 51°
2026-05-01 15:14 23.40128 41.34250 37058 ft 499 kts 51°
2026-05-01 15:14 23.46142 41.43499 37048 ft 500 kts 51°
2026-05-01 15:15 23.54155 41.55854 37040 ft 500 kts 51°
2026-05-01 15:16 23.62139 41.68191 37038 ft 500 kts 52°
2026-05-01 15:18 23.70116 41.85108 37037 ft 507 kts 70°
2026-05-01 15:19 23.74649 41.99658 37037 ft 507 kts 70°
2026-05-01 15:19 23.78327 42.10410 37039 ft 506 kts 68°
2026-05-01 15:20 23.82024 42.21172 37039 ft 507 kts 69°
2026-05-01 15:21 23.84485 42.28391 37037 ft 508 kts 69°
2026-05-01 15:21 23.86932 42.35597 37042 ft 507 kts 69°
2026-05-01 15:22 23.90608 42.46444 37041 ft 507 kts 69°
2026-05-01 15:22 23.93036 42.53613 37044 ft 507 kts 69°
2026-05-01 15:23 23.95485 42.60865 37046 ft 507 kts 69°
2026-05-01 15:23 23.97911 42.68055 37045 ft 508 kts 69°
2026-05-01 15:24 24.00342 42.75279 37048 ft 509 kts 69°
2026-05-01 15:24 24.02785 42.82563 37048 ft 509 kts 69°
2026-05-01 15:25 24.05202 42.89780 37058 ft 509 kts 69°
2026-05-01 15:25 24.07604 42.97045 37068 ft 510 kts 69°
2026-05-01 15:26 24.09999 43.04330 37068 ft 510 kts 69°
2026-05-01 15:26 24.12402 43.11647 37065 ft 510 kts 70°
2026-05-01 15:27 24.14790 43.18926 37063 ft 510 kts 70°
2026-05-01 15:28 24.18358 43.29840 37052 ft 509 kts 70°
2026-05-01 15:28 24.20744 43.37149 37045 ft 510 kts 70°
2026-05-01 15:29 24.24302 43.48078 37045 ft 510 kts 70°
2026-05-01 15:30 24.28651 43.61473 37034 ft 511 kts 70°
2026-05-01 15:31 24.36169 43.84742 37011 ft 512 kts 70°
2026-05-01 15:32 24.40894 43.99432 36989 ft 512 kts 71°
2026-05-01 15:34 24.46689 44.21886 36986 ft 511 kts 81°